Location: Newark
(38.7000°N, 9.1833°W)
Time: 19:07:59
(UTC+00:00)

Envisat - Pass Details

Date: 30 October 2019
Orbit: 764 x 766 km, 98.1° (Epoch: 14 November)

Event Time Altitude Azimuth Distance (km) Brightness Sun altitude
Rises 17:56:54 0° 142° (SE) 3,219 6.0 -4.1°
Reaches altitude 10° 17:59:21 10° 134° (SE) 2,297 5.2 -4.6°
Maximum altitude 18:03:54 34° 70° (ENE) 1,235 3.6 -5.5°
Drops below altitude 10° 18:08:27 10° 6° (N) 2,309 5.3 -6.3°
Sets 18:10:56 0° 358° (N) 3,239 6.1 -6.8°
